Regional Weather Roundup
Issued by NWS Wakefield, VA

Home | Current Version | Previous Version | Text Only | Print | Product List | Glossary On
Versions: 1 2 3 4 5 6 7 8 9 10 11 12 13 14 15 16 17 18 19 20 21 22 23 24 25 26 27
000
ASUS41 KAKQ 241710
RWRAKQ

REGIONAL WEATHER ROUNDUP
NATIONAL WEATHER SERVICE WAKEFIELD VA
100 PM EDT THU APR 24 2014

Note: "fair" indicates few or no clouds below 12,000 feet with no
significant weather and/or obstructions to visibility. * = Denotes
station may not report precipitation (e.g., rain,snow,etc.),
thunder or fog.

VAZ042-051-052>054-056-241800-
NORTHERN VIRGINIA

CITY           SKY/WX    TMP DP  RH WIND       PRES   REMARKS
WASH NATIONAL  MOSUNNY   59  24  26 N7        30.09F
DULLES         MOSUNNY   56  19  23 NW10      30.10F
FORT BELVOIR   SUNNY     59  19  21 NW9       30.10F
QUANTICO       MOSUNNY   59  19  21 W8        30.10F
FREDERICKSBRG* SUNNY     60  22  23 CALM      30.09F
STAFFORD*      SUNNY     59  26  29 NW3       30.14F
WARRENTON      SUNNY     60  32  35 NW7       30.10F
CULPEPER*      SUNNY     61  12  15 W7        30.10F
MANASSAS*      NOT AVBL
LEESBURG*      SUNNY     55  30  38 NW9       30.10F
WINCHESTER     SUNNY     55  21  26 NW8       30.09F
$$

VAZ048-049-060>072-079>083-241800-
CENTRAL AND SOUTH CENTRAL VIRGINIA...AND NORTH CENTRAL NORTH CAROLINA

CITY           SKY/WX    TMP DP  RH WIND       PRES   REMARKS
RICHMOND       PTSUNNY   62  20  19 VRB3      30.10F
CHESTERFIELD*  SUNNY     61  21  21 NE10G16   30.12F
HANOVER        SUNNY     60  22  23 CALM      30.11F
TAPPAHANNOCK*  SUNNY     60   8  13 W8G18     30.10F
CHARLOTTSVILLE CLOUDY    58  17  20 CALM      30.09F
ORANGE*        SUNNY     55  25  30 CALM      30.11F
LOUISA*        SUNNY     57  23  26 CALM      30.09F
FARMVILLE*     SUNNY     64  19  17 S5        30.08F
SOUTH HILL*    SUNNY     63  25  23 CALM      30.15F
ROANOKE RAPIDS SUNNY     64  27  24 CALM      30.10F
RALEIGH        MOSUNNY   65  35  33 VRB5      30.11F
$$

VAZ088>098-241800-
SOUTHEAST VIRGINIA

CITY           SKY/WX    TMP DP  RH WIND       PRES   REMARKS
NORFOLK        SUNNY     59  31  34 N9        30.09F
VIRGINIA BEACH MOSUNNY   60  29  30 N10       30.08F
NORFOLK NAVAL  MOSUNNY   60  26  27 W12       30.10F
WEST POINT*      N/A    N/A N/A N/A MISG        N/A
NEWPORT NEWS   SUNNY     65  25  22 VRB6      30.09F
LANGLEY AFB    SUNNY     61  25  25 N14       30.09F
FORT EUSTIS    MOSUNNY   59  34  39 W9        30.08F
WILLIAMSBURG*  SUNNY     64  28  25 N9        30.10F
FRANKLIN*      SUNNY     63  25  23 NE3       30.10F
WAKEFIELD      SUNNY     62  26  25 N6        30.10F
$$

VAZ020-022-025-037-045-241800-
WESTERN AND SOUTHWEST VIRGINIA

CITY           SKY/WX    TMP DP  RH WIND       PRES   REMARKS
STAUNTON*      PTSUNNY   54  24  31 S6        30.12F
HOT SPRINGS VA CLOUDY    48  23  37 CALM      30.13F
LYNCHBURG      SUNNY     63  20  19 VRB5      30.10F
DANVILLE       MOSUNNY   64  25  22 SW5       30.10F
MARTINSVILLE   MOSUNNY   66  32  28 S6        30.11F
ROANOKE        PTSUNNY   61  13  15 VRB3      30.11F
BLACKSBURG     MOSUNNY   59  34  38 CALM      30.10F
DUBLIN*        MOSUNNY   58  32  37 CALM      30.09F
MARION*        SUNNY     61  33  34 NE5       30.08F
HILLSVILLE*    MOSUNNY   61  25  25 S12       30.10F
RICHLANDS*     SUNNY     67  31  26 S5        30.04F
WISE*          MOSUNNY   68  27  21 W5        30.05F
ABINGDON*      SUNNY     69  29  23 W7        30.04F
$$

MDZ021>025-VAZ099-100-241800-
SOUTHERN MARYLAND AND THE DELMARVA PENINSULA

CITY           SKY/WX    TMP DP  RH WIND       PRES   REMARKS
PATUXENT RIVER MOSUNNY   59  18  20 NW13      30.08F
BAY BRIDGE APT SUNNY     55  23  28 NW9       30.07F
LEONARDTOWN    SUNNY     57  19  23 W10       30.09F
DOVER          SUNNY     57  22  25 NW18G24   30.00F
GEORGETOWN     SUNNY     59  18  20 N10       30.03F
EASTON         SUNNY     57  25  28 NW13G23   30.11F
CAMBRIDGE      SUNNY     55  21  26 NW14G23   30.07F
SALISBURY      SUNNY     60  21  22 NW17      30.05F
OCEAN CITY     SUNNY     60  20  21 NW15G22   30.03F
WALLOPS ISLAND MOSUNNY   59  29  31 NW12G18   30.05F
ACCOMACK*      SUNNY     55  27  33 NW14G23   30.08F
$$

NCZ012>017-030>032-241800-
EASTERN NORTH CAROLINA

CITY           SKY/WX    TMP DP  RH WIND       PRES   REMARKS
ELIZABETH CITY SUNNY     62  29  28 VRB6      30.09F
AHOSKIE*       SUNNY     61  26  26 CALM      30.11F
EDENTON*       SUNNY     63  28  27 SW6       30.10F
CURRITUCK*     SUNNY     65  23  20 NW5       30.09F
KILL DEVIL HLS SUNNY     55  37  50 NE7       30.09F
MANTEO         SUNNY     56  37  48 W3        30.11F
CAPE HATTERAS  SUNNY     58  38  47 MISG      30.11F
GOLDSBORO      MOSUNNY   62  31  30 VRB2      30.10F
WASHINGTON     SUNNY     62  12  14 CALM      30.12F
GREENVILLE     SUNNY     63  30  29 CALM      30.13F
NEW BERN       SUNNY     66  31  27 CALM      30.13F
WILMINGTON     SUNNY     67  42  40 SE9       30.11F
$$

VAZ048-241800-
ELSEWHERE

CITY           SKY/WX    TMP DP  RH WIND       PRES   REMARKS
HARRISBURG PA  SUNNY     62  18  18 W6        30.05F
BALTIMORE      MOSUNNY   57  21  24 W17G23    30.06F
ANNAPOLIS      SUNNY     56  22  26 NW10      30.07F
ANDREWS AFB    SUNNY     57  23  26 W13       30.08F
WILMINGTON DE  SUNNY     57  21  24 NW17G24   30.04F
PHILADELPHIA   MOSUNNY   56  14  19 NW20      30.02F
WILDWOOD NJ*   SUNNY     54  25  32 W18G24    30.02F
ATLANTIC CITY  SUNNY     58  16  19 NW23G35   29.97F
HENDERSON NC   SUNNY     62  26  25 W5        30.10F
GREENSBORO     PTSUNNY   64  30  27 S10       30.09F
ROCKY MOUNT    SUNNY     64  26  23 VRB3      30.12F
FAYETTEVILLE   SUNNY     65  33  30 CALM      30.12F
CHARLOTTE      SUNNY     67  36  31 SE3       30.11F
$$

VAZ100-241800-
MARINE

STATION/POSITION TIME  TEMP    WIND        PRES    WAVE   SWELL
                       AIR SEA DIR/SP/G            HT/PER HT/PER
                 (UTC) (F)     (DEG/KT/KT) (MB)    (FT/S) (FT/S)
44066 TX TWR #4  1700   46 45  290/ 21/ 25 1011.6F   8/ 7
CAPE MAY NJ      1700   52 58  330/ 21/ 27 1016.3F
LEWES DE         1700   51 51  350/ 16/ 19 1016.3S
15NM E FENWICK I 1700   48 46              1016.7F   4/ 5
OCEAN-CITY-INLET 1700   55 51  310/ 15/ 20 1016.6F
WACHAPREAGUE VA  1700   55 55  320/  7/ 18 1018.0F
THOMAS POINT MD  1700   54 53  290/ 13/ 15 1018.7F
GOOSES REEF MD   1700   52      10/  6/  8   N/A
COVE POINT MD    1700   51      40/ 10/ 12 1018.5F
SOLOMONS ISLAND  1700      55                N/A
BISHOPS HEAD MD  1700   53 54  310/ 16/ 21 1018.4F
PINEY POINT MD   1700          290/ 12/ 15   N/A
POTOMAC MD       1700   52     290/ 14/ 16 1018.2F
CAMBRIDGE MD     1700   52 56  300/ 10/ 17 1018.2S
LEWISETTA VA     1700   54 56  310/ 13/ 17 1018.9S
RAPPAHANNOCK LGT 1700          340/ 10/ 11 1019.1F
STINGRAY PT      1700   53     300/ 12/ 16 1018.9F
YORK RVR RNG VA  1700   55      10/  6/  7 1018.3S
YORKTOWN VA      1700   55 57  310/ 10/ 11 1018.9S
JAMESTOWN VA     1700   56     310/  6/ 10   N/A
DOMINION TERM VA 1700   55     300/ 14/ 16 1018.8F
KIPTOPEKE VA     1700      56  330/ 12/ 13   N/A
CHES BAY BRIDGE  1700   53 55  330/ 10/ 12 1018.8F
CAPE HENRY VA    1700   52     330/  9/ 10   N/A
CHESAPEAKE LGHT  1600   52     310/ 13/ 13 1020.2F
WILLOUBY STN VA  1700   55     270/  9/ 12 1018.0S
S CRANEY ISL VA  1700          260/  8/ 12 1019.0F
CAPE HENRY BUOY  1700      48                N/A     3/ 4
1ST LANDING BUOY 1700      50                N/A     2/ 3   2/13
64NM E OF VA BCH 1700   49 49  310/ 14/ 16 1018.5F   5/ 8   3/ 8
DUCK PIER NC     1700   50 53   20/ 14/ 16 1018.3S
44100 DUCK FRF   1700      49                N/A     4/ 6
44056 DUCK FRF   1700      52                N/A     3/ 6
OREGON INLET NC  1700   51 54   20/ 11/ 13 1019.5F
HATTERAS NC      1700   56 60  290/  3/  5 1020.1F
CAPE LOOKOUT NC  1600   56      50/ 12/ 13 1020.2F
FRYING PAN SHLS  1700   63 68   70/ 16/ 19 1018.8F   4/ 5   2/ 8
$$



USA.gov is the U.S. government's official web portal to all federal, state and local government web resources and services.